#datint,netname,site,siteID,timestamp,AirT_Avg,AirT_Max,AirT_Min,RH_Max,RH_Min,Td_Avg,Td_Max,Td_Min,EA_Avg,Solar_MJ,Solar,WindS_Avg,WindD_Avg,WindS_Max,precip_accum,precip,ETo,Etr
hour,AgMet,castlevalley,125,10JAN2019:00:00:00,22.64,23.54,21.21,95,93,21.32,22.03,20.51,0.3990,0.0000,0.0,2.3,105,5.0,13.25,.,-.000146,-.000177
hour,AgMet,castlevalley,125,10JAN2019:01:00:00,22.56,24.28,21.22,96,93,21.29,22.52,20.77,0.3860,0.0000,0.0,2.0,121,3.7,13.25,.,-.000161,-.000200
hour,AgMet,castlevalley,125,10JAN2019:02:00:00,21.22,22.14,19.21,95,92,19.78,20.31,18.76,0.3750,0.0000,0.0,1.2,101,3.1,13.25,.,-.000200,-.000275
hour,AgMet,castlevalley,125,10JAN2019:03:00:00,20.30,21.84,18.73,95,93,18.84,20.17,17.95,0.3490,0.0000,0.0,1.9,111,3.5,13.25,.,-.000148,-.000184
hour,AgMet,castlevalley,125,10JAN2019:04:00:00,19.49,21.42,18.12,95,92,18.01,18.69,16.90,0.3438,0.0000,0.0,1.5,128,3.9,13.25,.,-.000170,-.000223
hour,AgMet,castlevalley,125,10JAN2019:05:00:00,20.13,21.35,19.28,95,93,18.65,18.83,18.41,0.3492,0.0000,0.0,1.3,108,3.5,13.26,.,-.000178,-.000234
hour,AgMet,castlevalley,125,10JAN2019:06:00:00,20.81,21.42,19.71,95,94,19.39,19.79,19.03,0.3633,0.0000,0.0,1.7,109,3.9,13.26,.,-.000164,-.000210
hour,AgMet,castlevalley,125,10JAN2019:07:00:00,19.60,20.62,18.73,94,93,18.01,18.56,17.56,0.3383,0.0049,1.4,1.2,123,3.1,13.26,.,-.000174,-.000231
hour,AgMet,castlevalley,125,10JAN2019:08:00:00,20.35,22.27,18.42,94,93,18.71,19.88,17.29,0.3585,0.1737,48.3,0.7,105,2.6,13.27,.,-.000005,.0000134
hour,AgMet,castlevalley,125,10JAN2019:09:00:00,24.51,26.91,22.15,93,90,22.57,23.68,21.07,0.4220,0.4873,135.3,0.2,102,2.0,13.28,.,.0013816,.0014813
hour,AgMet,castlevalley,125,10JAN2019:10:00:00,26.21,27.76,24.76,92,88,23.75,24.30,22.97,0.4328,0.9426,261.8,2.0,289,6.8,13.29,.,.0029231,.0031770
hour,AgMet,castlevalley,125,10JAN2019:11:00:00,29.23,31.72,25.55,92,80,25.33,25.82,24.51,0.4675,1.4666,407.4,1.2,297,4.6,13.30,.,.0052086,.0056242
hour,AgMet,castlevalley,125,10JAN2019:12:00:00,32.79,34.08,30.06,83,74,26.47,26.74,26.20,0.4848,1.8756,521.0,2.1,280,4.6,13.30,.,.0072882,.0079740
hour,AgMet,castlevalley,125,10JAN2019:13:00:00,34.00,36.37,32.23,82,72,27.58,27.90,27.08,0.5140,1.4330,398.1,3.3,253,7.0,13.29,.,.0054959,.0061744
hour,AgMet,castlevalley,125,10JAN2019:14:00:00,34.79,35.82,33.75,78,72,27.62,27.76,27.39,0.5133,1.1016,306.0,3.5,285,7.7,13.28,.,.0043402,.0050133
hour,AgMet,castlevalley,125,10JAN2019:15:00:00,35.22,36.19,34.42,76,71,27.67,27.92,27.49,0.5145,0.8756,243.2,2.7,276,5.7,13.27,.,.0032388,.0037915
hour,AgMet,castlevalley,125,10JAN2019:16:00:00,33.59,36.31,30.33,83,70,26.94,27.70,26.20,0.4900,0.3540,98.3,2.6,219,6.8,13.26,.,.0011576,.0015367
hour,AgMet,castlevalley,125,10JAN2019:17:00:00,29.08,30.45,26.13,91,83,25.43,26.17,24.09,0.4648,0.0219,6.1,1.3,100,3.5,13.25,.,-.000308,-.000320
hour,AgMet,castlevalley,125,10JAN2019:18:00:00,24.97,27.11,23.33,93,89,22.71,23.56,22.04,0.4205,0.0000,0.0,1.9,131,4.6,13.24,.,-.000271,-.000343
hour,AgMet,castlevalley,125,10JAN2019:19:00:00,24.48,25.55,23.23,94,92,22.78,23.29,22.15,0.4188,0.0000,0.0,1.9,112,5.3,13.24,.,-.000284,-.000366
hour,AgMet,castlevalley,125,10JAN2019:20:00:00,24.05,25.79,23.17,94,92,22.30,23.13,21.68,0.4173,0.0000,0.0,2.0,117,3.9,13.25,.,-.000266,-.000333
hour,AgMet,castlevalley,125,10JAN2019:21:00:00,23.45,25.00,21.83,95,93,21.92,22.64,21.25,0.3998,0.0000,0.0,1.5,114,3.7,13.25,.,-.000310,-.000408
hour,AgMet,castlevalley,125,10JAN2019:22:00:00,23.46,24.89,22.44,96,94,22.16,23.10,21.83,0.4068,0.0000,0.0,1.4,139,6.8,13.25,.,-.000322,-.000429
hour,AgMet,castlevalley,125,10JAN2019:23:00:00,24.16,25.07,23.30,95,94,22.78,23.07,22.42,0.4175,0.0000,0.0,1.6,121,4.4,13.26,.,-.000310,-.000404
hour,AgMet,castlevalley,125,11JAN2019:00:00:00,23.53,25.44,22.20,95,93,22.15,23.40,21.27,0.3965,0.0000,0.0,1.7,83,4.8,13.26,.,-.000296,-.000382
hour,AgMet,castlevalley,125,11JAN2019:01:00:00,22.43,24.22,21.16,96,95,21.21,22.41,20.49,0.3963,0.0000,0.0,1.4,108,4.6,13.26,.,-.000317,-.000422
hour,AgMet,castlevalley,125,11JAN2019:02:00:00,22.47,24.34,20.12,96,93,21.14,22.73,19.73,0.3845,0.0000,0.0,0.9,225,3.9,13.26,.,-.000358,-.000504
hour,AgMet,castlevalley,125,11JAN2019:03:00:00,21.02,22.51,19.08,96,95,19.85,20.95,18.58,0.3705,0.0000,0.0,1.3,59,3.9,13.26,.,-.000309,-.000414
hour,AgMet,castlevalley,125,11JAN2019:04:00:00,22.30,24.40,20.74,95,94,21.04,22.73,19.93,0.3958,0.0000,0.0,0.7,125,2.6,13.27,.,-.000375,-.000538
hour,AgMet,castlevalley,125,11JAN2019:05:00:00,24.06,24.52,23.48,95,94,22.71,22.85,22.43,0.4178,0.0000,0.0,0.7,229,3.3,13.27,.,-.000393,-.000567
hour,AgMet,castlevalley,125,11JAN2019:06:00:00,25.55,27.20,24.34,95,94,24.23,25.24,23.52,0.4465,0.0000,0.0,1.2,100,4.4,13.27,.,-.000363,-.000498
hour,AgMet,castlevalley,125,11JAN2019:07:00:00,24.33,26.72,23.66,96,93,23.16,23.60,22.83,0.4223,0.0030,0.8,2.0,266,6.1,13.31,.,-.000295,-.000389
hour,AgMet,castlevalley,125,11JAN2019:08:00:00,25.22,26.89,24.02,96,94,24.00,24.94,23.26,0.4448,0.1061,29.5,0.9,101,2.9,13.31,.,.0002145,.0002466
hour,AgMet,castlevalley,125,11JAN2019:09:00:00,26.36,27.50,25.06,95,92,24.82,25.52,23.86,0.4533,0.3785,105.2,1.4,254,4.6,13.31,.,.0011964,.0013078
hour,AgMet,castlevalley,125,11JAN2019:10:00:00,28.48,29.64,27.02,92,86,25.67,25.96,25.40,0.4735,0.7153,198.7,0.6,253,2.2,13.32,.,.0026196,.0028212
hour,AgMet,castlevalley,125,11JAN2019:11:00:00,31.57,37.20,29.21,88,69,26.87,27.70,26.28,0.4955,1.3783,382.8,1.5,267,4.2,13.33,.,.0051911,.0056469
hour,AgMet,castlevalley,125,11JAN2019:12:00:00,34.70,36.45,33.59,80,70,28.00,28.32,27.65,0.5213,1.0821,300.6,0.7,244,2.9,13.33,.,.0046886,.0050808
hour,AgMet,castlevalley,125,11JAN2019:13:00:00,34.61,36.62,33.64,81,74,28.67,28.97,28.39,0.5345,1.0197,283.3,1.4,294,3.7,13.32,.,.0043445,.0047803
hour,AgMet,castlevalley,125,11JAN2019:14:00:00,35.71,37.29,34.72,80,72,29.20,29.35,28.94,0.5498,0.8423,234.0,1.5,299,3.5,13.31,.,.0036111,.0040205
hour,AgMet,castlevalley,125,11JAN2019:15:00:00,36.07,37.71,35.46,80,73,29.55,29.74,29.42,0.5545,0.6654,184.8,1.6,270,3.9,13.31,.,.0026044,.0029611
hour,AgMet,castlevalley,125,11JAN2019:16:00:00,35.26,36.31,33.99,83,77,29.56,29.81,29.29,0.5515,0.2668,74.1,0.5,238,2.4,13.30,.,.0004824,.0005741
hour,AgMet,castlevalley,125,11JAN2019:17:00:00,33.77,34.91,31.93,87,81,29.39,29.71,28.76,0.5455,0.0309,8.6,0.7,218,3.9,13.29,.,-.000474,-.000517
hour,AgMet,castlevalley,125,11JAN2019:18:00:00,30.80,32.78,28.51,89,82,27.07,28.48,25.91,0.4930,0.0000,0.0,1.6,100,4.8,13.28,.,-.000163,-.000204
hour,AgMet,castlevalley,125,11JAN2019:19:00:00,32.95,33.65,31.94,84,80,28.17,28.39,27.67,0.5243,0.0000,0.0,1.3,114,3.1,13.28,.,-.000172,-.000218
hour,AgMet,castlevalley,125,11JAN2019:20:00:00,32.71,33.29,31.88,87,82,28.56,28.64,28.43,0.5320,0.0000,0.0,0.8,130,3.7,13.28,.,-.000252,-.000349
hour,AgMet,castlevalley,125,11JAN2019:21:00:00,31.83,32.86,29.20,87,82,27.75,28.42,26.14,0.5095,0.0000,0.0,1.2,90,4.2,13.28,.,-.000197,-.000256
hour,AgMet,castlevalley,125,11JAN2019:22:00:00,27.70,30.36,25.49,90,83,24.18,25.26,23.18,0.4420,0.0000,0.0,2.2,112,5.7,13.28,.,-.000098,-.000107
hour,AgMet,castlevalley,125,11JAN2019:23:00:00,25.75,26.95,24.63,92,87,23.17,23.98,22.43,0.4263,0.0000,0.0,2.4,117,5.0,13.28,.,-.000115,-.000132
hour,AgMet,castlevalley,125,12JAN2019:00:00:00,28.17,29.95,25.43,91,84,24.75,25.52,23.72,0.4563,0.0000,0.0,2.4,114,5.3,13.29,.,-.000093,-.000100
hour,AgMet,castlevalley,125,12JAN2019:01:00:00,29.05,31.23,27.81,89,83,25.67,26.50,24.97,0.4748,0.0000,0.0,1.1,119,4.8,13.29,.,-.000218,-.000296
hour,AgMet,castlevalley,125,12JAN2019:02:00:00,30.73,31.47,29.58,89,82,26.83,27.03,26.63,0.4940,0.0000,0.0,1.0,104,2.9,13.29,.,-.000226,-.000308
hour,AgMet,castlevalley,125,12JAN2019:03:00:00,30.00,30.44,29.40,90,88,27.12,27.22,27.08,0.5008,0.0000,0.0,0.7,89,3.9,13.29,.,-.000267,-.000381
hour,AgMet,castlevalley,125,12JAN2019:04:00:00,27.97,29.95,25.92,93,88,25.57,26.38,24.66,0.4633,0.0000,0.0,0.7,115,4.8,13.29,.,-.000267,-.000385
hour,AgMet,castlevalley,125,12JAN2019:05:00:00,24.93,26.83,23.59,94,90,22.98,23.64,22.34,0.4180,0.0000,0.0,1.6,111,3.5,13.28,.,-.000178,-.000228
hour,AgMet,castlevalley,125,12JAN2019:06:00:00,25.32,27.93,23.78,92,84,22.76,23.66,22.09,0.4213,0.0000,0.0,2.0,107,3.9,13.29,.,-.000136,-.000164
hour,AgMet,castlevalley,125,12JAN2019:07:00:00,24.03,25.68,22.26,92,88,21.73,22.17,21.37,0.4023,0.0052,1.5,1.9,100,3.9,13.29,.,-.000144,-.000182
hour,AgMet,castlevalley,125,12JAN2019:08:00:00,23.46,25.13,22.08,93,89,21.37,21.93,20.79,0.3960,0.0893,24.8,1.6,112,3.9,13.29,.,.0001825,.0002465
hour,AgMet,castlevalley,125,12JAN2019:09:00:00,27.39,31.61,24.89,89,77,23.91,24.51,22.70,0.4448,0.4417,122.7,1.1,129,3.5,13.31,.,.0014469,.0016018
hour,AgMet,castlevalley,125,12JAN2019:10:00:00,30.98,33.25,28.67,83,74,24.86,25.56,24.17,0.4610,0.6732,187.0,0.4,90,2.6,13.31,.,.0026913,.0029176
hour,AgMet,castlevalley,125,12JAN2019:11:00:00,35.34,38.30,32.27,78,64,26.82,27.26,26.19,0.4988,1.6335,453.8,1.4,265,4.2,13.33,.,.0066164,.0072487
hour,AgMet,castlevalley,125,12JAN2019:12:00:00,38.36,39.67,37.19,67,58,26.92,27.19,26.51,0.4940,1.8208,505.8,2.0,272,4.4,13.33,.,.0078973,.0088026
hour,AgMet,castlevalley,125,12JAN2019:13:00:00,40.20,41.86,39.00,63,55,27.24,27.30,27.13,0.5055,1.7891,497.0,2.8,276,6.8,13.32,.,.0079506,.0090715
hour,AgMet,castlevalley,125,12JAN2019:14:00:00,42.33,44.34,41.12,58,52,27.66,27.72,27.56,0.5123,1.5489,430.3,1.9,261,4.6,13.31,.,.0070100,.0079611
hour,AgMet,castlevalley,125,12JAN2019:15:00:00,41.88,43.49,41.15,58,54,27.72,27.80,27.63,0.5160,1.0981,305.0,2.4,254,4.6,13.30,.,.0046157,.0055098
hour,AgMet,castlevalley,125,12JAN2019:16:00:00,38.31,42.80,32.61,76,54,26.94,27.66,26.08,0.4925,0.3793,105.4,1.5,182,2.6,13.28,.,.0013118,.0017082
hour,AgMet,castlevalley,125,12JAN2019:17:00:00,31.94,33.66,30.44,83,76,26.37,26.66,26.00,0.4833,0.0380,10.6,1.4,111,3.3,13.27,.,-.000681,-.000720
hour,AgMet,castlevalley,125,12JAN2019:18:00:00,29.73,32.71,27.96,88,78,25.53,26.35,24.89,0.4680,0.0000,0.0,1.7,116,4.6,13.26,.,-.000522,-.000671
hour,AgMet,castlevalley,125,12JAN2019:19:00:00,30.34,31.27,29.31,88,84,26.62,26.75,26.45,0.4910,0.0000,0.0,1.6,104,3.7,13.27,.,-.000562,-.000733
hour,AgMet,castlevalley,125,12JAN2019:20:00:00,30.23,31.21,29.02,90,85,26.74,27.00,26.41,0.4938,0.0000,0.0,1.4,109,2.9,13.27,.,-.000596,-.000793
hour,AgMet,castlevalley,125,12JAN2019:21:00:00,28.01,29.63,26.59,91,87,25.28,26.37,24.57,0.4598,0.0000,0.0,1.8,109,3.5,13.27,.,-.000521,-.000669
hour,AgMet,castlevalley,125,12JAN2019:22:00:00,25.93,27.02,24.75,92,87,23.48,23.94,22.91,0.4185,0.0000,0.0,2.3,116,4.2,13.27,.,-.000446,-.000552
hour,AgMet,castlevalley,125,12JAN2019:23:00:00,24.96,26.16,24.51,91,87,22.19,22.19,22.19,0.4170,0.0000,0.0,2.1,104,3.3,13.27,.,-.000111,-.000139
hour,AgMet,cokeville,129,10JAN2019:00:00:00,3.28,6.29,1.39,92,86,0.79,3.82,-0.95,0.1518,0.0000,0.0,1.5,144,2.9,9.96,.,-.000192,-.000245
hour,AgMet,cokeville,129,10JAN2019:01:00:00,2.39,3.26,1.83,89,86,-0.40,0.01,-0.76,0.1503,0.0000,0.0,1.6,149,2.6,9.96,.,-.000172,-.000215
hour,AgMet,cokeville,129,10JAN2019:02:00:00,4.24,6.12,3.07,91,89,1.82,3.05,0.84,0.1680,0.0000,0.0,1.5,95,2.6,9.97,.,-.000198,-.000253
hour,AgMet,cokeville,129,10JAN2019:03:00:00,3.69,6.18,1.90,91,86,1.05,2.94,-0.54,0.1578,0.0000,0.0,0.9,167,2.4,9.97,.,-.000239,-.000328
hour,AgMet,cokeville,129,10JAN2019:04:00:00,2.16,3.02,1.34,89,86,-0.62,-0.18,-0.99,0.1470,0.0000,0.0,1.2,136,2.6,9.97,.,-.000197,-.000259
hour,AgMet,cokeville,129,10JAN2019:05:00:00,1.43,2.96,-0.02,89,85,-1.55,-0.60,-2.49,0.1403,0.0000,0.0,1.0,149,2.2,9.97,.,-.000202,-.000271
hour,AgMet,cokeville,129,10JAN2019:06:00:00,1.56,3.02,0.04,88,85,-1.52,-0.50,-2.72,0.1398,0.0000,0.0,1.7,144,3.3,9.98,.,-.000159,-.000198
hour,AgMet,cokeville,129,10JAN2019:07:00:00,0.64,1.53,-0.02,87,85,-2.50,-2.04,-2.88,0.1355,0.0011,0.3,1.8,143,2.6,9.98,.,-.000145,-.000178
hour,AgMet,cokeville,129,10JAN2019:08:00:00,2.62,4.88,0.97,88,85,-0.45,1.19,-1.53,0.1535,0.0803,22.3,1.6,150,3.5,9.99,.,-.000096,-.000080
hour,AgMet,cokeville,129,10JAN2019:09:00:00,5.86,8.10,4.57,89,87,3.05,3.98,2.31,0.1788,0.3783,105.1,3.6,149,6.1,10.00,.,.0005981,.0007168
hour,AgMet,cokeville,129,10JAN2019:10:00:00,11.09,13.28,7.84,89,85,8.00,9.48,5.58,0.2260,1.2597,349.9,3.7,172,6.4,10.01,.,.0023857,.0026390
hour,AgMet,cokeville,129,10JAN2019:11:00:00,12.25,13.50,11.22,88,84,9.01,9.94,8.63,0.2333,0.9748,270.8,4.5,133,6.1,10.01,.,.0020715,.0023301
hour,AgMet,cokeville,129,10JAN2019:12:00:00,15.33,17.94,13.25,88,81,11.78,12.59,10.64,0.2658,0.8893,247.0,3.4,165,6.1,10.01,.,.0022968,.0025586
hour,AgMet,cokeville,129,10JAN2019:13:00:00,19.89,23.57,16.33,86,69,14.14,14.68,13.60,0.2920,0.9782,271.7,1.4,115,4.2,10.02,.,.0029993,.0032891
hour,AgMet,cokeville,129,10JAN2019:14:00:00,21.21,23.11,20.07,80,70,15.03,15.29,14.57,0.2995,0.6655,184.9,1.4,221,5.3,10.01,.,.0021730,.0024259
hour,AgMet,cokeville,129,10JAN2019:15:00:00,20.72,21.43,20.32,85,79,16.38,16.78,15.84,0.3213,0.2704,75.1,3.8,339,8.1,10.00,.,.0010620,.0013195
hour,AgMet,cokeville,129,10JAN2019:16:00:00,21.39,21.74,20.81,88,83,17.60,17.92,17.14,0.3380,0.2130,59.2,2.2,324,5.3,9.99,.,.0002419,.0003692
hour,AgMet,cokeville,129,10JAN2019:17:00:00,21.61,22.00,21.26,90,86,18.59,18.76,18.38,0.3495,0.0204,5.7,1.8,197,4.2,9.99,.,-.000037,.0000074
hour,AgMet,cokeville,129,10JAN2019:18:00:00,21.70,22.20,21.32,91,86,18.98,19.17,18.72,0.3550,0.0000,0.0,2.0,111,4.4,9.98,.,.0000731,.0001038
hour,AgMet,cokeville,129,10JAN2019:19:00:00,21.92,22.26,21.58,92,86,19.17,19.39,18.93,0.3573,0.0000,0.0,1.4,253,4.4,9.98,.,.0000531,.0000785
hour,AgMet,cokeville,129,10JAN2019:20:00:00,21.83,22.26,21.08,92,88,19.38,19.61,19.13,0.3615,0.0000,0.0,1.2,291,3.3,9.98,.,.0000440,.0000671
hour,AgMet,cokeville,129,10JAN2019:21:00:00,19.35,21.27,17.75,95,89,17.61,18.69,16.97,0.3293,0.0000,0.0,1.8,142,5.7,9.97,.,.0000417,.0000598
hour,AgMet,cokeville,129,10JAN2019:22:00:00,18.49,20.10,17.32,96,91,17.04,18.09,16.25,0.3238,0.0000,0.0,2.8,141,5.5,9.97,.,.0000453,.0000612
hour,AgMet,cokeville,129,10JAN2019:23:00:00,19.38,19.79,18.80,95,92,17.81,17.93,17.69,0.3393,0.0000,0.0,1.6,277,4.2,9.97,.,.0000317,.0000457
hour,AgMet,cokeville,129,11JAN2019:00:00:00,20.37,21.22,19.30,94,91,18.61,18.89,18.16,0.3530,0.0000,0.0,1.6,136,4.8,9.97,.,.0000411,.0000598
hour,AgMet,cokeville,129,11JAN2019:01:00:00,20.85,21.46,20.29,94,91,19.02,19.19,18.82,0.3570,0.0000,0.0,2.2,187,3.5,9.97,.,.0000551,.0000769
hour,AgMet,cokeville,129,11JAN2019:02:00:00,21.60,22.33,21.16,93,91,19.66,19.95,19.37,0.3660,0.0000,0.0,2.0,96,3.5,9.97,.,.0000526,.0000748
hour,AgMet,cokeville,129,11JAN2019:03:00:00,22.11,22.52,21.59,93,90,20.02,20.10,19.97,0.3713,0.0000,0.0,1.9,237,7.5,9.97,.,.0000566,.0000809
hour,AgMet,cokeville,129,11JAN2019:04:00:00,20.86,22.21,17.75,97,91,19.34,20.07,18.22,0.3568,0.0000,0.0,1.7,239,3.9,9.97,.,.0000375,.0000535
hour,AgMet,cokeville,129,11JAN2019:05:00:00,18.26,19.11,16.95,100,96,17.87,18.21,17.48,0.3403,0.0000,0.0,1.3,157,3.7,9.96,.,.0000032,.0000052
hour,AgMet,cokeville,129,11JAN2019:06:00:00,19.46,19.92,18.68,98,97,18.86,19.09,18.37,0.3548,0.0000,0.0,0.9,140,3.1,9.97,.,.0000036,.0000063
hour,AgMet,cokeville,129,11JAN2019:07:00:00,20.34,20.78,19.67,98,97,19.71,20.04,19.26,0.3685,0.0007,0.2,1.2,153,3.1,9.97,.,.0000094,.0000146
hour,AgMet,cokeville,129,11JAN2019:08:00:00,20.78,21.53,20.35,97,95,20.00,20.19,19.91,0.3725,0.1014,28.2,2.4,127,4.2,9.97,.,-.000298,-.000290
hour,AgMet,cokeville,129,11JAN2019:09:00:00,23.45,25.23,21.34,95,86,21.09,21.42,20.65,0.3925,0.4242,117.8,1.4,147,3.7,9.98,.,.0009845,.0010926
hour,AgMet,cokeville,129,11JAN2019:10:00:00,26.55,30.10,24.80,87,72,21.84,22.09,21.54,0.4038,0.8756,243.2,1.1,209,2.9,9.99,.,.0027583,.0030050
hour,AgMet,cokeville,129,11JAN2019:11:00:00,29.16,32.92,26.01,85,68,23.11,24.05,22.36,0.4233,1.0931,303.6,0.8,167,2.6,9.99,.,.0040227,.0043683
hour,AgMet,cokeville,129,11JAN2019:12:00:00,31.42,33.69,29.69,80,69,24.45,24.61,24.35,0.4500,1.5292,424.8,2.6,149,4.8,9.99,.,.0056752,.0063135
hour,AgMet,cokeville,129,11JAN2019:13:00:00,32.56,38.32,30.48,78,56,24.39,24.53,24.26,0.4435,1.6029,445.3,2.0,145,3.5,9.99,.,.0060573,.0067075
hour,AgMet,cokeville,129,11JAN2019:14:00:00,37.08,40.59,34.02,65,51,23.82,24.15,23.35,0.4350,1.3561,376.7,0.7,196,3.1,9.99,.,.0054508,.0059661
hour,AgMet,cokeville,129,11JAN2019:15:00:00,34.37,36.12,33.14,65,58,22.83,22.97,22.68,0.4218,0.9437,262.2,1.8,265,5.9,9.99,.,.0032267,.0037634
hour,AgMet,cokeville,129,11JAN2019:16:00:00,31.28,36.90,26.22,79,53,21.62,21.90,21.40,0.3930,0.4577,127.1,1.4,138,3.1,9.97,.,.0007389,.0009963
hour,AgMet,cokeville,129,11JAN2019:17:00:00,19.62,26.34,15.26,96,76,16.91,18.78,15.33,0.2968,0.0248,6.9,2.6,126,4.6,9.95,.,-.000357,-.000376
hour,AgMet,cokeville,129,11JAN2019:18:00:00,15.44,17.77,11.99,100,91,14.82,16.86,12.54,0.3020,0.0000,0.0,1.8,140,4.6,9.93,.,-.000423,-.000546
hour,AgMet,cokeville,129,11JAN2019:19:00:00,12.98,15.24,11.00,99,93,12.27,13.98,11.53,0.2643,0.0000,0.0,0.7,219,2.6,9.93,.,-.000498,-.000713
hour,AgMet,cokeville,129,11JAN2019:20:00:00,10.80,13.91,6.81,99,92,9.77,12.07,6.76,0.2280,0.0000,0.0,0.8,258,5.0,9.93,.,-.000452,-.000642
hour,AgMet,cokeville,129,11JAN2019:21:00:00,6.18,9.10,3.91,95,88,4.16,6.31,2.48,0.1845,0.0000,0.0,1.0,210,2.2,9.93,.,-.000352,-.000480
hour,AgMet,cokeville,129,11JAN2019:22:00:00,2.68,7.08,-2.03,92,83,-0.17,3.33,-3.78,0.1533,0.0000,0.0,1.1,152,4.4,9.93,.,-.000295,-.000400
hour,AgMet,cokeville,129,11JAN2019:23:00:00,-1.02,-0.10,-2.09,88,85,-4.14,-3.96,-4.50,0.1255,0.0000,0.0,4.2,158,7.5,9.94,.,-.000093,-.000097
hour,AgMet,cokeville,129,12JAN2019:00:00:00,-0.50,1.52,-1.96,88,85,-3.73,-2.92,-4.59,0.1283,0.0000,0.0,3.8,145,6.8,9.95,.,-.000109,-.000117
hour,AgMet,cokeville,129,12JAN2019:01:00:00,0.68,1.78,-0.52,87,85,-2.52,-1.94,-3.34,0.1340,0.0000,0.0,1.9,197,4.4,9.96,.,-.000208,-.000261
hour,AgMet,cokeville,129,12JAN2019:02:00:00,1.77,5.31,-1.45,89,84,-1.30,2.36,-4.21,0.1483,0.0000,0.0,1.6,180,3.9,9.97,.,-.000236,-.000300
hour,AgMet,cokeville,129,12JAN2019:03:00:00,6.92,7.85,5.00,90,88,4.45,5.14,3.02,0.1903,0.0000,0.0,1.7,135,2.9,9.98,.,-.000284,-.000356
hour,AgMet,cokeville,129,12JAN2019:04:00:00,7.18,7.84,6.35,90,89,4.73,5.00,4.02,0.1880,0.0000,0.0,0.4,223,1.5,9.98,.,-.000436,-.000648
hour,AgMet,cokeville,129,12JAN2019:05:00:00,6.88,8.02,5.98,90,89,4.40,5.27,4.09,0.1868,0.0000,0.0,0.4,313,0.9,9.98,.,-.000438,-.000656
hour,AgMet,cokeville,129,12JAN2019:06:00:00,8.03,8.70,7.28,91,89,5.71,6.08,5.32,0.1983,0.0000,0.0,1.1,233,4.6,9.99,.,-.000390,-.000564
hour,AgMet,cokeville,129,12JAN2019:07:00:00,8.48,9.07,7.83,91,90,6.20,6.69,5.77,0.2035,0.0010,0.3,1.2,351,2.9,9.99,.,-.000374,-.000521
hour,AgMet,cokeville,129,12JAN2019:08:00:00,9.10,9.50,8.20,91,90,6.87,7.04,6.53,0.2060,0.0856,23.8,0.0,0,0.0,9.99,.,-.000289,-.000376
hour,AgMet,cokeville,129,12JAN2019:09:00:00,10.30,13.33,8.20,93,90,8.14,10.38,6.43,0.2273,0.4321,120.0,0.0,0,0.0,10.00,.,.0007298,.0007784
hour,AgMet,cokeville,129,12JAN2019:10:00:00,10.39,13.15,8.93,92,88,7.86,8.95,6.78,0.2165,0.9862,274.0,0.0,64,0.2,10.01,.,.0021277,.0022695
hour,AgMet,cokeville,129,12JAN2019:11:00:00,13.75,18.26,10.84,95,89,11.51,14.22,8.85,0.2690,1.5219,422.8,0.1,117,2.2,10.02,.,.0038573,.0041166
hour,AgMet,cokeville,129,12JAN2019:12:00:00,20.73,29.45,14.35,100,90,19.24,26.17,16.09,0.3493,1.6696,463.8,0.4,148,1.8,10.02,.,.0051044,.0054523
hour,AgMet,cokeville,129,12JAN2019:13:00:00,22.51,27.19,19.78,96,77,19.96,22.46,17.70,0.3528,1.6244,451.2,0.8,163,2.2,10.02,.,.0050344,.0053957
hour,AgMet,cokeville,129,12JAN2019:14:00:00,23.43,28.21,19.27,89,57,15.74,16.81,15.00,0.3133,1.3769,382.5,0.5,218,1.8,10.01,.,.0041864,.0045138
hour,AgMet,cokeville,129,12JAN2019:15:00:00,23.24,29.94,17.80,73,55,12.97,14.96,11.55,0.2668,0.9659,268.3,0.6,288,3.7,10.01,.,.0025387,.0027783
hour,AgMet,cokeville,129,12JAN2019:16:00:00,16.13,17.86,12.91,82,73,10.67,11.57,8.69,0.2473,0.4747,131.9,2.4,313,3.7,9.99,.,.0006014,.0007898
hour,AgMet,cokeville,129,12JAN2019:17:00:00,10.48,13.10,8.60,90,82,7.35,8.39,6.45,0.2100,0.0283,7.9,2.1,317,3.5,9.96,.,-.000347,-.000356
hour,AgMet,cokeville,129,12JAN2019:18:00:00,3.21,9.30,-0.33,92,84,0.40,4.81,-2.59,0.1538,0.0000,0.0,1.3,109,3.5,9.94,.,-.000279,-.000365
hour,AgMet,cokeville,129,12JAN2019:19:00:00,-2.08,0.74,-5.25,89,84,-5.14,-3.38,-6.89,0.1160,0.0000,0.0,1.5,143,2.9,9.93,.,-.000204,-.000257
hour,AgMet,cokeville,129,12JAN2019:20:00:00,-5.57,-4.44,-7.09,86,82,-9.09,-8.01,-10.47,0.0963,0.0000,0.0,1.4,168,2.6,9.94,.,-.000183,-.000237
hour,AgMet,cokeville,129,12JAN2019:21:00:00,-6.36,-4.55,-8.82,86,82,-9.93,-8.66,-11.77,0.0928,0.0000,0.0,1.9,151,3.3,9.95,.,-.000146,-.000176
hour,AgMet,cokeville,129,12JAN2019:22:00:00,-6.73,-2.92,-9.49,86,80,-10.50,-7.66,-12.40,0.0948,0.0000,0.0,2.2,119,4.6,9.96,.,-.000129,-.000154
hour,AgMet,cokeville,129,12JAN2019:23:00:00,-1.88,-0.63,-3.05,87,85,-5.05,-5.05,-5.05,0.1270,0.0000,0.0,0.8,7,2.0,9.97,.,-.000066,-.000090
hour,AgMet,downey,110,10JAN2019:00:00:00,16.45,19.42,13.41,93,87,14.05,15.25,12.42,0.2823,0.0000,0.0,1.5,97,4.8,8.59,.,-.000420,-.000553
hour,AgMet,downey,110,10JAN2019:01:00:00,17.95,19.66,15.25,92,89,15.73,16.45,14.71,0.3028,0.0000,0.0,1.3,84,3.1,8.60,.,-.000457,-.000607
hour,AgMet,downey,110,10JAN2019:02:00:00,18.39,20.40,15.25,92,88,15.91,17.06,14.73,0.3113,0.0000,0.0,2.0,87,4.6,8.61,.,-.000391,-.000497
hour,AgMet,downey,110,10JAN2019:03:00:00,20.04,20.77,19.17,92,89,17.64,18.20,17.15,0.3353,0.0000,0.0,1.9,163,6.1,8.62,.,-.000407,-.000510
hour,AgMet,downey,110,10JAN2019:04:00:00,22.37,23.34,20.40,92,88,19.96,20.38,19.19,0.3735,0.0000,0.0,3.5,150,7.5,8.63,.,-.000311,-.000362
hour,AgMet,downey,110,10JAN2019:05:00:00,21.17,23.03,20.64,92,88,18.95,19.10,18.68,0.3538,0.0000,0.0,2.8,187,5.0,8.63,.,-.000344,-.000408
hour,AgMet,downey,110,10JAN2019:06:00:00,22.65,24.19,20.76,93,88,20.37,21.17,19.08,0.3830,0.0000,0.0,2.3,58,5.9,8.63,.,-.000418,-.000522
hour,AgMet,downey,110,10JAN2019:07:00:00,24.82,25.47,23.76,90,87,21.88,22.17,21.38,0.4048,0.0001,0.0,1.6,146,4.4,8.64,.,-.000506,-.000659
hour,AgMet,downey,110,10JAN2019:08:00:00,24.62,25.10,23.99,97,90,23.23,23.69,22.38,0.4270,0.0370,10.3,2.9,288,5.9,8.65,.,-.000086,-.000068
hour,AgMet,downey,110,10JAN2019:09:00:00,25.49,26.26,23.99,97,94,24.33,24.65,23.70,0.4483,0.2305,64.0,3.2,120,5.9,8.67,.,.0006254,.0007181
hour,AgMet,downey,110,10JAN2019:10:00:00,27.39,29.20,26.13,95,93,26.00,26.83,25.22,0.4853,0.5195,144.3,2.0,106,4.8,8.71,.,.0017109,.0018668
hour,AgMet,downey,110,10JAN2019:11:00:00,30.33,31.63,28.71,93,87,27.83,28.09,27.21,0.5183,0.8754,243.2,1.8,110,4.4,8.74,.,.0031299,.0034094
hour,AgMet,downey,110,10JAN2019:12:00:00,33.27,36.02,31.26,89,75,28.73,29.22,28.50,0.5248,0.9535,264.9,1.4,193,4.4,8.76,.,.0038076,.0041561
hour,AgMet,downey,110,10JAN2019:13:00:00,34.61,37.05,32.82,86,73,29.10,29.41,28.74,0.5408,1.0646,295.7,1.1,204,4.2,8.76,.,.0043040,.0046880
hour,AgMet,downey,110,10JAN2019:14:00:00,31.83,32.82,31.23,94,86,29.79,30.18,29.31,0.5593,0.6748,187.4,2.5,261,4.4,8.74,.,.0024880,.0027347
hour,AgMet,downey,110,10JAN2019:15:00:00,31.37,32.33,30.74,100,92,30.51,30.96,30.03,0.5783,0.4442,123.4,2.8,323,5.0,8.72,.,.0014607,.0015903
hour,AgMet,downey,110,10JAN2019:16:00:00,30.90,31.12,30.62,100,100,30.94,31.01,30.89,0.5848,0.1760,48.9,2.1,269,3.7,8.72,.,.0002734,.0002888
hour,AgMet,downey,110,10JAN2019:17:00:00,30.91,31.25,30.63,100,100,30.94,31.07,30.85,0.5867,0.0194,5.4,0.3,122,2.2,8.72,.,-.000331,-.000418
hour,AgMet,downey,110,10JAN2019:18:00:00,31.10,31.31,30.89,100,100,31.15,31.18,31.11,0.5908,0.0000,0.0,0.8,154,3.1,8.72,.,-.000247,-.000360
hour,AgMet,downey,110,10JAN2019:19:00:00,31.15,31.32,30.83,100,100,31.19,31.22,31.16,0.5883,0.0000,0.0,1.7,142,6.8,8.72,.,-.000212,-.000285
hour,AgMet,downey,110,10JAN2019:20:00:00,30.95,31.38,30.46,100,99,30.93,31.11,30.65,0.5850,0.0000,0.0,4.7,146,9.6,8.72,.,-.000138,-.000159
hour,AgMet,downey,110,10JAN2019:21:00:00,30.46,30.95,30.03,100,100,30.49,30.73,30.33,0.5765,0.0000,0.0,3.5,146,7.2,8.72,.,-.000159,-.000192